Back to catalog

COSMOS 1275 DEB

AlivePO
NORAD 12662·DEBRIS·🇷🇺 Russia

Launched Jun 4, 1981 from Plesetsk Cosmodrome

Loading…

Next Passes (next 24 hours)

TLE

FreshSource: Space-Track

Epoch: Sep 14, 2026, 11:48 UTC

1 12662U 81053S   26257.49207301  .00000150  00000-0  13330-3 0  9991
2 12662  82.9594 155.0345 0022870 124.3655  48.4452 13.78215779267039

Track COSMOS 1275 DEB in real time with AllMySat

Download on the App Store